Find Starlink 38255

NORAD ID: 100269 Int'l Des: 2026-181 Owner: SPXS Country: US Constellation: starlink operational

Aktuelle Ansicht

3D-Globus wird geladen...

About Starlink 38255

Starlink 38255 (NORAD 100269) is a starlink constellation satellite launched Aug 8, 2026 by SPXS of US. with a mass of 575.00 kg.

Nächste Überflüge

Passes for default location (London). Set your location on the main map for personalized predictions.

Höhenverlauf

Loading altitude history...

Zweizeiliger Elementsatz

1 A0269U 26181Z 26247.06798305 .00196634 00000-0 12861-2 0 9993
2 A0269 97.2844 289.8530 0001139 139.2376 220.8975 15.75243052 5364
Epoch: 4. Sept. 2026 • Age: 37 hours

Aktueller Status

Höhe 351.6 km
Apogäum / Perigäum N/A
Geschwindigkeit 7.70 km/s
Subsatellitenpunkt 56.11°N, 79.03°E
Startdatum 8. Aug. 2026
Alter 27 days
Typ internet

Technische Details

Klassifizierung Payload
Masse 575.00 kg
Trockenmasse 530.00 kg
Gesamtmasse 575.00 kg
Länge 0.30 m
Durchmesser 4.10 m
Spannweite 29.00 m
Form Box + pan
Hersteller SPXS
Bus-Typ Starlink V2MO
Phasenstatus In Orbit
Besitzer/Staat SPXS/US

Most Searched